This is the latest recevied weather packets stored in our database for station/object APPOWX. If no packets are shown the sender has not sent any weather packets the latest 10 day(s).
| Time | Temp. | Humidity | Pressure | Rain* | Wind** | Luminosity | Snow |
|---|---|---|---|---|---|---|---|
| 1778278665 | 19.44° C | 38% | 1015.1 hPa | 0 mm | - | - | - |
| 1778278605 | 19.44° C | 37% | 1015.1 hPa | 0 mm | - | - | - |
| 1778278544 | 19.44° C | 39% | 1015.3 hPa | 0 mm | - | - | - |
| 1778278485 | 19.44° C | 43% | 1015.3 hPa | 0 mm | - | - | - |
| 1778278425 | 19.44° C | 40% | 1015.3 hPa | 0 mm | - | - | - |
| 1778278364 | 19.44° C | 40% | 1015.2 hPa | 0 mm | - | - | - |
| 1778278305 | 19.44° C | 42% | 1015.2 hPa | 0 mm | - | - | - |
| 1778278244 | 19.44° C | 38% | 1015.2 hPa | 0 mm | - | - | - |
| 1778278184 | 19.44° C | 39% | 1015.1 hPa | 0 mm | - | - | - |
| 1778278125 | 19.44° C | 38% | 1015.3 hPa | 0 mm | - | - | - |
| 1778278064 | 19.44° C | 37% | 1015.3 hPa | 0 mm | - | - | - |
| 1778278004 | 19.44° C | 40% | 1015.3 hPa | 0 mm | - | - | - |
| 1778277944 | 19.44° C | 39% | 1015.3 hPa | 0 mm | - | - | - |
| 1778277884 | 19.44° C | 39% | 1015.3 hPa | 0 mm | - | - | - |
| 1778277825 | 19.44° C | 40% | 1015.3 hPa | 0 mm | - | - | - |
| 1778277764 | 19.44° C | 42% | 1015.3 hPa | 0 mm | - | - | - |
| 1778277704 | 19.44° C | 46% | 1015.5 hPa | 0 mm | - | - | - |
| 1778277644 | 19.44° C | 39% | 1015.3 hPa | 0 mm | - | - | - |
| 1778277584 | 19.44° C | 37% | 1015.3 hPa | 0 mm | - | - | - |
| 1778277524 | 19.44° C | 39% | 1015.4 hPa | 0 mm | - | - | - |
| 1778277464 | 19.44° C | 37% | 1015.5 hPa | 0 mm | - | - | - |
| 1778277404 | 19.44° C | 37% | 1015.5 hPa | 0 mm | - | - | - |
| 1778277344 | 19.44° C | 37% | 1015.5 hPa | 0 mm | - | - | - |
| 1778277283 | 19.44° C | 39% | 1015.4 hPa | 0 mm | - | - | - |
| 1778277224 | 19.44° C | 37% | 1015.4 hPa | 0 mm | - | - | - |
* Rain latest hour (hover to see other rain measurements)
** Current wind speed in m/s (hover to see current wind gust speed)